Year,Month,Day,Hour,Minute,Value (Times are PST for temperature in C)
2011,08,03,00,00,16.60
2011,08,03,00,01,16.60
2011,08,03,00,02,16.60
2011,08,03,00,03,16.50
2011,08,03,00,04,16.50
2011,08,03,00,05,16.40
2011,08,03,00,06,16.40
2011,08,03,00,07,16.40
2011,08,03,00,08,16.40
2011,08,03,00,09,16.30
2011,08,03,00,10,16.30
2011,08,03,00,11,16.30
2011,08,03,00,12,16.20
2011,08,03,00,13,16.20
2011,08,03,00,14,16.20
2011,08,03,00,15,16.10
2011,08,03,00,16,16.10
2011,08,03,00,17,16.10
2011,08,03,00,18,16.00
2011,08,03,00,19,16.00
2011,08,03,00,20,16.00
2011,08,03,00,21,15.90
2011,08,03,00,22,15.90
2011,08,03,00,23,15.90
2011,08,03,00,24,15.90
2011,08,03,00,25,15.90
2011,08,03,00,26,15.90
2011,08,03,00,27,15.90
2011,08,03,00,28,15.90
2011,08,03,00,29,15.90
2011,08,03,00,30,15.90
2011,08,03,00,31,15.90
2011,08,03,00,32,15.90
2011,08,03,00,33,15.90
2011,08,03,00,34,15.80
2011,08,03,00,35,15.80
2011,08,03,00,36,15.80
2011,08,03,00,37,15.80
2011,08,03,00,38,15.80
2011,08,03,00,39,15.80
2011,08,03,00,40,15.80
2011,08,03,00,41,15.80
2011,08,03,00,42,15.80
2011,08,03,00,43,15.70
2011,08,03,00,44,15.70
2011,08,03,00,45,15.70
2011,08,03,00,46,15.60
2011,08,03,00,47,15.60
2011,08,03,00,48,15.60
2011,08,03,00,49,15.60
2011,08,03,00,50,15.50
2011,08,03,00,51,15.50
2011,08,03,00,52,15.40
2011,08,03,00,53,15.40
2011,08,03,00,54,15.40
2011,08,03,00,55,15.30
2011,08,03,00,56,15.30
2011,08,03,00,57,15.30
2011,08,03,00,58,15.20
2011,08,03,00,59,15.20
2011,08,03,01,00,15.20
2011,08,03,01,01,15.10
2011,08,03,01,02,15.10
2011,08,03,01,03,15.00
2011,08,03,01,04,15.00
2011,08,03,01,05,15.00
2011,08,03,01,06,15.00
2011,08,03,01,07,15.00
2011,08,03,01,08,15.00
2011,08,03,01,09,15.00
2011,08,03,01,10,15.00
2011,08,03,01,11,15.00
2011,08,03,01,12,15.00
2011,08,03,01,13,15.00
2011,08,03,01,14,15.00
2011,08,03,01,15,15.00
2011,08,03,01,16,15.00
2011,08,03,01,17,15.00
2011,08,03,01,18,15.00
2011,08,03,01,19,15.00
2011,08,03,01,20,15.00
2011,08,03,01,21,15.00
2011,08,03,01,22,15.00
2011,08,03,01,23,15.00
2011,08,03,01,24,15.00
2011,08,03,01,25,15.00
2011,08,03,01,26,15.00
2011,08,03,01,27,15.00
2011,08,03,01,28,15.00
2011,08,03,01,29,15.00
2011,08,03,01,30,15.00
2011,08,03,01,31,15.00
2011,08,03,01,32,15.00
2011,08,03,01,33,15.00
2011,08,03,01,34,15.00
2011,08,03,01,35,15.00
2011,08,03,01,36,15.00
2011,08,03,01,37,15.00
2011,08,03,01,38,15.00
2011,08,03,01,39,15.00
2011,08,03,01,40,15.00
2011,08,03,01,41,15.00
2011,08,03,01,42,15.00
2011,08,03,01,43,15.00
2011,08,03,01,44,15.00
2011,08,03,01,45,14.90
2011,08,03,01,46,14.90
2011,08,03,01,47,14.90
2011,08,03,01,48,14.90
2011,08,03,01,49,14.90
2011,08,03,01,50,14.90
2011,08,03,01,51,14.90
2011,08,03,01,52,14.90
2011,08,03,01,53,15.00
2011,08,03,01,54,15.00
2011,08,03,01,55,15.00
2011,08,03,01,56,15.00
2011,08,03,01,57,15.00
2011,08,03,01,58,15.00
2011,08,03,01,59,15.00
2011,08,03,02,00,15.00
2011,08,03,02,01,15.00
2011,08,03,02,02,15.00
2011,08,03,02,03,15.00
2011,08,03,02,04,15.00
2011,08,03,02,05,14.90
2011,08,03,02,06,14.90
2011,08,03,02,07,14.90
2011,08,03,02,08,14.90
2011,08,03,02,09,14.80
2011,08,03,02,10,14.80
2011,08,03,02,11,14.80
2011,08,03,02,12,14.80
2011,08,03,02,13,14.80
2011,08,03,02,14,14.80
2011,08,03,02,15,14.70
2011,08,03,02,16,14.70
2011,08,03,02,17,14.70
2011,08,03,02,18,14.70
2011,08,03,02,19,14.70
2011,08,03,02,20,14.70
2011,08,03,02,21,14.70
2011,08,03,02,22,14.70
2011,08,03,02,23,14.70
2011,08,03,02,24,14.80
2011,08,03,02,25,14.80
2011,08,03,02,26,14.80
2011,08,03,02,27,14.80
2011,08,03,02,28,14.80
2011,08,03,02,29,14.80
2011,08,03,02,30,14.80
2011,08,03,02,31,14.80
2011,08,03,02,32,14.80
2011,08,03,02,33,14.80
2011,08,03,02,34,14.80
2011,08,03,02,35,14.80
2011,08,03,02,36,14.70
2011,08,03,02,37,14.70
2011,08,03,02,38,14.70
2011,08,03,02,39,14.70
2011,08,03,02,40,14.70
2011,08,03,02,41,14.70
2011,08,03,02,42,14.70
2011,08,03,02,43,14.70
2011,08,03,02,44,14.70
2011,08,03,02,45,14.70
2011,08,03,02,46,14.70
2011,08,03,02,47,14.60
2011,08,03,02,48,14.60
2011,08,03,02,49,14.60
2011,08,03,02,50,14.60
2011,08,03,02,51,14.60
2011,08,03,02,52,14.70
2011,08,03,02,53,14.60
2011,08,03,02,54,14.60
2011,08,03,02,55,14.60
2011,08,03,02,56,14.60
2011,08,03,02,57,14.60
2011,08,03,02,58,14.60
2011,08,03,02,59,14.60
2011,08,03,03,00,14.60
2011,08,03,03,01,14.60
2011,08,03,03,02,14.60
2011,08,03,03,03,14.60
2011,08,03,03,04,14.50
2011,08,03,03,05,14.50
2011,08,03,03,06,14.50
2011,08,03,03,07,14.50
2011,08,03,03,08,14.50
2011,08,03,03,09,14.40
2011,08,03,03,10,14.40
2011,08,03,03,11,14.40
2011,08,03,03,12,14.40
2011,08,03,03,13,14.40
2011,08,03,03,14,14.40
2011,08,03,03,15,14.30
2011,08,03,03,16,14.30
2011,08,03,03,17,14.30
2011,08,03,03,18,14.30
2011,08,03,03,19,14.30
2011,08,03,03,20,14.20
2011,08,03,03,21,14.20
2011,08,03,03,22,14.10
2011,08,03,03,23,14.10
2011,08,03,03,24,14.00
2011,08,03,03,25,14.00
2011,08,03,03,26,13.90
2011,08,03,03,27,13.90
2011,08,03,03,28,13.80
2011,08,03,03,29,13.80
2011,08,03,03,30,13.80
2011,08,03,03,31,13.80
2011,08,03,03,32,13.80
2011,08,03,03,33,13.70
2011,08,03,03,34,13.70
2011,08,03,03,35,13.70
2011,08,03,03,36,13.70
2011,08,03,03,37,13.70
2011,08,03,03,38,13.70
2011,08,03,03,39,13.70
2011,08,03,03,40,13.70
2011,08,03,03,41,13.70
2011,08,03,03,42,13.70
2011,08,03,03,43,13.70
2011,08,03,03,44,13.70
2011,08,03,03,45,13.70
2011,08,03,03,46,13.70
2011,08,03,03,47,13.70
2011,08,03,03,48,13.70
2011,08,03,03,49,13.70
2011,08,03,03,50,13.70
2011,08,03,03,51,13.70
2011,08,03,03,52,13.70
2011,08,03,03,53,13.70
2011,08,03,03,54,13.70
2011,08,03,03,55,13.70
2011,08,03,03,56,13.70
2011,08,03,03,57,13.60
2011,08,03,03,58,13.60
2011,08,03,03,59,13.60
2011,08,03,04,00,13.60
2011,08,03,04,01,13.60
2011,08,03,04,02,13.60
2011,08,03,04,03,13.60
2011,08,03,04,04,13.60
2011,08,03,04,05,13.60
2011,08,03,04,06,13.60
2011,08,03,04,07,13.60
2011,08,03,04,08,13.60
2011,08,03,04,09,13.60
2011,08,03,04,10,13.50
2011,08,03,04,11,13.50
2011,08,03,04,12,13.50
2011,08,03,04,13,13.50
2011,08,03,04,14,13.60
2011,08,03,04,15,13.60
2011,08,03,04,16,13.60
2011,08,03,04,17,13.60
2011,08,03,04,18,13.60
2011,08,03,04,19,13.60
2011,08,03,04,20,13.70
2011,08,03,04,21,13.70
2011,08,03,04,22,13.70
2011,08,03,04,23,13.70
2011,08,03,04,24,13.70
2011,08,03,04,25,13.70
2011,08,03,04,26,13.70
2011,08,03,04,27,13.70
2011,08,03,04,28,13.70
2011,08,03,04,29,13.70
2011,08,03,04,30,13.70
2011,08,03,04,31,13.70
2011,08,03,04,32,13.70
2011,08,03,04,33,13.70
2011,08,03,04,34,13.70
2011,08,03,04,35,13.70
2011,08,03,04,36,13.70
2011,08,03,04,37,13.70
2011,08,03,04,38,13.80
2011,08,03,04,39,13.80
2011,08,03,04,40,13.80
2011,08,03,04,41,13.80
2011,08,03,04,42,13.80
2011,08,03,04,43,13.80
2011,08,03,04,44,13.70
2011,08,03,04,45,13.70
2011,08,03,04,46,13.70
2011,08,03,04,47,13.70
2011,08,03,04,48,13.70
2011,08,03,04,49,13.70
2011,08,03,04,50,13.70
2011,08,03,04,51,13.70
2011,08,03,04,52,13.70
2011,08,03,04,53,13.70
2011,08,03,04,54,13.70
2011,08,03,04,55,13.70
2011,08,03,04,56,13.70
2011,08,03,04,57,13.70
2011,08,03,04,58,13.70
2011,08,03,04,59,13.70
2011,08,03,05,00,13.60
2011,08,03,05,01,13.60
2011,08,03,05,02,13.60
2011,08,03,05,03,13.60
2011,08,03,05,04,13.60
2011,08,03,05,05,13.60
2011,08,03,05,06,13.60
2011,08,03,05,07,13.60
2011,08,03,05,08,13.60
2011,08,03,05,09,13.60
2011,08,03,05,10,13.60
2011,08,03,05,11,13.60
2011,08,03,05,12,13.60
2011,08,03,05,13,13.60
2011,08,03,05,14,13.60
2011,08,03,05,15,13.60
2011,08,03,05,16,13.60
2011,08,03,05,17,13.60
2011,08,03,05,18,13.60
2011,08,03,05,19,13.70
2011,08,03,05,20,13.60
2011,08,03,05,21,13.60
2011,08,03,05,22,13.60
2011,08,03,05,23,13.60
2011,08,03,05,24,13.60
2011,08,03,05,25,13.60
2011,08,03,05,26,13.60
2011,08,03,05,27,13.70
2011,08,03,05,28,13.70
2011,08,03,05,29,13.70
2011,08,03,05,30,13.70
2011,08,03,05,31,13.70
2011,08,03,05,32,13.70
2011,08,03,05,33,13.80
2011,08,03,05,34,13.80
2011,08,03,05,35,13.80
2011,08,03,05,36,13.80
2011,08,03,05,37,13.80
2011,08,03,05,38,13.80
2011,08,03,05,39,13.80
2011,08,03,05,40,13.80
2011,08,03,05,41,13.80
2011,08,03,05,42,13.80
2011,08,03,05,43,13.80
2011,08,03,05,44,13.80
2011,08,03,05,45,13.80
2011,08,03,05,46,13.80
2011,08,03,05,47,13.70
2011,08,03,05,48,13.70
2011,08,03,05,49,13.70
2011,08,03,05,50,13.80
2011,08,03,05,51,13.80
2011,08,03,05,52,13.80
2011,08,03,05,53,13.80
2011,08,03,05,54,13.80
2011,08,03,05,55,13.80
2011,08,03,05,56,13.80
2011,08,03,05,57,13.80
2011,08,03,05,58,13.80
2011,08,03,05,59,13.80
2011,08,03,06,00,13.80
2011,08,03,06,01,13.80
2011,08,03,06,02,13.80
2011,08,03,06,03,13.80
2011,08,03,06,04,13.80
2011,08,03,06,05,13.70
2011,08,03,06,06,13.70
2011,08,03,06,07,13.70
2011,08,03,06,08,13.80
2011,08,03,06,09,13.80
2011,08,03,06,10,13.80
2011,08,03,06,11,13.80
2011,08,03,06,12,13.80
2011,08,03,06,13,13.80
2011,08,03,06,14,13.80
2011,08,03,06,15,13.80
2011,08,03,06,16,13.80
2011,08,03,06,17,13.90
2011,08,03,06,18,13.90
2011,08,03,06,19,13.90
2011,08,03,06,20,13.90
2011,08,03,06,21,13.90
2011,08,03,06,22,13.90
2011,08,03,06,23,13.90
2011,08,03,06,24,13.90
2011,08,03,06,25,13.90
2011,08,03,06,26,13.90
2011,08,03,06,27,13.90
2011,08,03,06,28,13.90
2011,08,03,06,29,13.90
2011,08,03,06,30,13.90
2011,08,03,06,31,13.90
2011,08,03,06,32,13.90
2011,08,03,06,33,13.90
2011,08,03,06,34,13.90
2011,08,03,06,35,13.90
2011,08,03,06,36,13.90
2011,08,03,06,37,13.90
2011,08,03,06,38,13.90
2011,08,03,06,39,13.90
2011,08,03,06,40,13.90
2011,08,03,06,41,13.90
2011,08,03,06,42,13.90
2011,08,03,06,43,13.90
2011,08,03,06,44,13.90
2011,08,03,06,45,13.90
2011,08,03,06,46,13.90
2011,08,03,06,47,13.90
2011,08,03,06,48,13.90
2011,08,03,06,49,13.90
2011,08,03,06,50,14.00
2011,08,03,06,51,14.00
2011,08,03,06,52,14.00
2011,08,03,06,53,14.00
2011,08,03,06,54,14.10
2011,08,03,06,55,14.10
2011,08,03,06,56,14.10
2011,08,03,06,57,14.10
2011,08,03,06,58,14.10
2011,08,03,06,59,14.10
2011,08,03,07,00,14.10
2011,08,03,07,01,14.10
2011,08,03,07,02,14.10
2011,08,03,07,03,14.10
2011,08,03,07,04,14.10
2011,08,03,07,05,14.10
2011,08,03,07,06,14.10
2011,08,03,07,07,14.10
2011,08,03,07,08,14.10
2011,08,03,07,09,14.10
2011,08,03,07,10,14.10
2011,08,03,07,11,14.10
2011,08,03,07,12,14.10
2011,08,03,07,13,14.20
2011,08,03,07,14,14.20
2011,08,03,07,15,14.20
2011,08,03,07,16,14.20
2011,08,03,07,17,14.20
2011,08,03,07,18,14.20
2011,08,03,07,19,14.20
2011,08,03,07,20,14.30
2011,08,03,07,21,14.30
2011,08,03,07,22,14.30
2011,08,03,07,23,14.30
2011,08,03,07,24,14.30
2011,08,03,07,25,14.30
2011,08,03,07,26,14.30
2011,08,03,07,27,14.30
2011,08,03,07,28,14.40
2011,08,03,07,29,14.40
2011,08,03,07,30,14.40
2011,08,03,07,31,14.40
2011,08,03,07,32,14.50
2011,08,03,07,33,14.50
2011,08,03,07,34,14.50
2011,08,03,07,35,14.60
2011,08,03,07,36,14.60
2011,08,03,07,37,14.60
2011,08,03,07,38,14.70
2011,08,03,07,39,14.70
2011,08,03,07,40,14.80
2011,08,03,07,41,14.80
2011,08,03,07,42,14.80
2011,08,03,07,43,14.90
2011,08,03,07,44,15.00
2011,08,03,07,45,15.00
2011,08,03,07,46,15.00
2011,08,03,07,47,15.00
2011,08,03,07,48,15.00
2011,08,03,07,49,15.00
2011,08,03,07,50,15.00
2011,08,03,07,51,15.00
2011,08,03,07,52,15.00
2011,08,03,07,53,15.00
2011,08,03,07,54,15.00
2011,08,03,07,55,15.00
2011,08,03,07,56,15.00
2011,08,03,07,57,15.00
2011,08,03,07,58,15.00
2011,08,03,07,59,15.00
2011,08,03,08,00,15.00
2011,08,03,08,01,15.10
2011,08,03,08,02,15.20
2011,08,03,08,03,15.20
2011,08,03,08,04,15.20
2011,08,03,08,05,15.30
2011,08,03,08,06,15.30
2011,08,03,08,07,15.30
2011,08,03,08,08,15.40
2011,08,03,08,09,15.40
2011,08,03,08,10,15.50
2011,08,03,08,11,15.50
2011,08,03,08,12,15.60
2011,08,03,08,13,15.60
2011,08,03,08,14,15.60
2011,08,03,08,15,15.70
2011,08,03,08,16,15.70
2011,08,03,08,17,15.70
2011,08,03,08,18,15.80
2011,08,03,08,19,15.80
2011,08,03,08,20,15.80
2011,08,03,08,21,15.80
2011,08,03,08,22,15.90
2011,08,03,08,23,15.90
2011,08,03,08,24,15.90
2011,08,03,08,25,15.90
2011,08,03,08,26,15.90
2011,08,03,08,27,16.00
2011,08,03,08,28,16.00
2011,08,03,08,29,16.10
2011,08,03,08,30,16.10
2011,08,03,08,31,16.20
2011,08,03,08,32,16.20
2011,08,03,08,33,16.20
2011,08,03,08,34,16.30
2011,08,03,08,35,16.30
2011,08,03,08,36,16.30
2011,08,03,08,37,16.40
2011,08,03,08,38,16.40
2011,08,03,08,39,16.40
2011,08,03,08,40,16.50
2011,08,03,08,41,16.50
2011,08,03,08,42,16.50
2011,08,03,08,43,16.50
2011,08,03,08,44,16.60
2011,08,03,08,45,16.60
2011,08,03,08,46,16.60
2011,08,03,08,47,16.60
2011,08,03,08,48,16.70
2011,08,03,08,49,16.70
2011,08,03,08,50,16.70
2011,08,03,08,51,16.70
2011,08,03,08,52,16.80
2011,08,03,08,53,16.80
2011,08,03,08,54,16.80
2011,08,03,08,55,16.90
2011,08,03,08,56,16.90
2011,08,03,08,57,16.90
2011,08,03,08,58,17.00
2011,08,03,08,59,17.10
2011,08,03,09,00,17.10
2011,08,03,09,01,17.10
2011,08,03,09,02,17.10
2011,08,03,09,03,17.20
2011,08,03,09,04,17.20
2011,08,03,09,05,17.20
2011,08,03,09,06,17.20
2011,08,03,09,07,17.20
2011,08,03,09,08,17.30
2011,08,03,09,09,17.30
2011,08,03,09,10,17.30
2011,08,03,09,11,17.30
2011,08,03,09,12,17.40
2011,08,03,09,13,17.40
2011,08,03,09,14,17.50
2011,08,03,09,15,17.50
2011,08,03,09,16,17.60
2011,08,03,09,17,17.70
2011,08,03,09,18,17.70
2011,08,03,09,19,17.80
2011,08,03,09,20,17.80
2011,08,03,09,21,17.90
2011,08,03,09,22,17.90
2011,08,03,09,23,17.90
2011,08,03,09,24,17.90
2011,08,03,09,25,18.00
2011,08,03,09,26,18.10
2011,08,03,09,27,18.10
2011,08,03,09,28,18.20
2011,08,03,09,29,18.20
2011,08,03,09,30,18.30
2011,08,03,09,31,18.40
2011,08,03,09,32,18.40
2011,08,03,09,33,18.50
2011,08,03,09,34,18.50
2011,08,03,09,35,18.50
2011,08,03,09,36,18.50
2011,08,03,09,37,18.50
2011,08,03,09,38,18.60
2011,08,03,09,39,18.60
2011,08,03,09,40,18.70
2011,08,03,09,41,18.70
2011,08,03,09,42,18.70
2011,08,03,09,43,18.70
2011,08,03,09,44,18.70
2011,08,03,09,45,18.70
2011,08,03,09,46,18.80
2011,08,03,09,47,18.80
2011,08,03,09,48,18.80
2011,08,03,09,49,18.90
2011,08,03,09,50,19.00
2011,08,03,09,51,19.10
2011,08,03,09,52,19.10
2011,08,03,09,53,19.10
2011,08,03,09,54,19.10
2011,08,03,09,55,19.00
2011,08,03,09,56,18.90
2011,08,03,09,57,18.90
2011,08,03,09,58,18.90
2011,08,03,09,59,19.00
2011,08,03,10,00,19.00
2011,08,03,10,01,19.10
2011,08,03,10,02,19.10
2011,08,03,10,03,19.10
2011,08,03,10,04,19.10
2011,08,03,10,05,19.10
2011,08,03,10,06,19.10
2011,08,03,10,07,19.10
2011,08,03,10,08,19.10
2011,08,03,10,09,19.10
2011,08,03,10,10,19.10
2011,08,03,10,11,19.10
2011,08,03,10,12,19.10
2011,08,03,10,13,19.10
2011,08,03,10,14,19.20
2011,08,03,10,15,19.20
2011,08,03,10,16,19.30
2011,08,03,10,17,19.30
2011,08,03,10,18,19.30
2011,08,03,10,19,19.40
2011,08,03,10,20,19.50
2011,08,03,10,21,19.60
2011,08,03,10,22,19.70
2011,08,03,10,23,19.70
2011,08,03,10,24,19.70
2011,08,03,10,25,19.70
2011,08,03,10,26,19.70
2011,08,03,10,27,19.70
2011,08,03,10,28,19.80
2011,08,03,10,29,19.90
2011,08,03,10,30,20.00
2011,08,03,10,31,20.00
2011,08,03,10,32,20.20
2011,08,03,10,33,20.30
2011,08,03,10,34,20.40
2011,08,03,10,35,20.40
2011,08,03,10,36,20.30
2011,08,03,10,37,20.30
2011,08,03,10,38,20.30
2011,08,03,10,39,20.30
2011,08,03,10,40,20.20
2011,08,03,10,41,20.20
2011,08,03,10,42,20.20
2011,08,03,10,43,20.20
2011,08,03,10,44,20.30
2011,08,03,10,45,20.40
2011,08,03,10,46,20.50
2011,08,03,10,47,20.60
2011,08,03,10,48,20.70
2011,08,03,10,49,20.80
2011,08,03,10,50,20.80
2011,08,03,10,51,20.80
2011,08,03,10,52,20.80
2011,08,03,10,53,20.80
2011,08,03,10,54,20.80
2011,08,03,10,55,20.80
2011,08,03,10,56,20.90
2011,08,03,10,57,21.00
2011,08,03,10,58,21.00
2011,08,03,10,59,21.10
2011,08,03,11,00,21.00
2011,08,03,11,01,21.00
2011,08,03,11,02,20.90
2011,08,03,11,03,21.00
2011,08,03,11,04,21.00
2011,08,03,11,05,21.10
2011,08,03,11,06,21.10
2011,08,03,11,07,21.00
2011,08,03,11,08,20.90
2011,08,03,11,09,20.80
2011,08,03,11,10,20.70
2011,08,03,11,11,20.60
2011,08,03,11,12,20.50
2011,08,03,11,13,20.40
2011,08,03,11,14,20.30
2011,08,03,11,15,20.40
2011,08,03,11,16,20.30
2011,08,03,11,17,20.40
2011,08,03,11,18,20.40
2011,08,03,11,19,20.40
2011,08,03,11,20,20.50
2011,08,03,11,21,20.50
2011,08,03,11,22,20.50
2011,08,03,11,23,20.50
2011,08,03,11,24,20.50
2011,08,03,11,25,20.40
2011,08,03,11,26,20.40
2011,08,03,11,27,20.50
2011,08,03,11,28,20.50
2011,08,03,11,29,20.60
2011,08,03,11,30,20.70
2011,08,03,11,31,20.70
2011,08,03,11,32,20.70
2011,08,03,11,33,20.80
2011,08,03,11,34,20.80
2011,08,03,11,35,20.90
2011,08,03,11,36,20.90
2011,08,03,11,37,21.00
2011,08,03,11,38,21.20
2011,08,03,11,39,21.30
2011,08,03,11,40,21.40
2011,08,03,11,41,21.40
2011,08,03,11,42,21.40
2011,08,03,11,43,21.40
2011,08,03,11,44,21.40
2011,08,03,11,45,21.40
2011,08,03,11,46,21.30
2011,08,03,11,47,21.30
2011,08,03,11,48,21.30
2011,08,03,11,49,21.30
2011,08,03,11,50,21.30
2011,08,03,11,51,21.40
2011,08,03,11,52,21.40
2011,08,03,11,53,21.30
2011,08,03,11,54,21.30
2011,08,03,11,55,21.40
2011,08,03,11,56,21.40
2011,08,03,11,57,21.50
2011,08,03,11,58,21.60
2011,08,03,11,59,21.50
2011,08,03,12,00,21.40
2011,08,03,12,01,21.40
2011,08,03,12,02,21.50
2011,08,03,12,03,21.50
2011,08,03,12,04,21.50
2011,08,03,12,05,21.60
2011,08,03,12,06,21.60
2011,08,03,12,07,21.60
2011,08,03,12,08,21.70
2011,08,03,12,09,21.70
2011,08,03,12,10,21.80
2011,08,03,12,11,21.80
2011,08,03,12,12,21.80
2011,08,03,12,13,21.90
2011,08,03,12,14,21.90
2011,08,03,12,15,22.00
2011,08,03,12,16,22.20
2011,08,03,12,17,22.20
2011,08,03,12,18,22.20
2011,08,03,12,19,22.20
2011,08,03,12,20,22.20
2011,08,03,12,21,22.20
2011,08,03,12,22,22.20
2011,08,03,12,23,22.20
2011,08,03,12,24,22.30
2011,08,03,12,25,22.40
2011,08,03,12,26,22.60
2011,08,03,12,27,22.60
2011,08,03,12,28,22.70
2011,08,03,12,29,22.70
2011,08,03,12,30,22.70
2011,08,03,12,31,22.70
2011,08,03,12,32,22.70
2011,08,03,12,33,22.70
2011,08,03,12,34,22.80
2011,08,03,12,35,22.90
2011,08,03,12,36,23.00
2011,08,03,12,37,23.00
2011,08,03,12,38,22.90
2011,08,03,12,39,22.70
2011,08,03,12,40,22.60
2011,08,03,12,41,22.50
2011,08,03,12,42,22.30
2011,08,03,12,43,22.20
2011,08,03,12,44,22.20
2011,08,03,12,45,22.20
2011,08,03,12,46,22.30
2011,08,03,12,47,22.30
2011,08,03,12,48,22.30
2011,08,03,12,49,22.50
2011,08,03,12,50,22.60
2011,08,03,12,51,22.70
2011,08,03,12,52,22.80
2011,08,03,12,53,22.90
2011,08,03,12,54,22.80
2011,08,03,12,55,22.80
2011,08,03,12,56,22.80
2011,08,03,12,57,23.00
2011,08,03,12,58,23.10
2011,08,03,12,59,23.10
2011,08,03,13,00,23.00
2011,08,03,13,01,22.90
2011,08,03,13,02,22.90
2011,08,03,13,03,22.90
2011,08,03,13,04,23.00
2011,08,03,13,05,23.20
2011,08,03,13,06,23.30
2011,08,03,13,07,23.30
2011,08,03,13,08,23.40
2011,08,03,13,09,23.50
2011,08,03,13,10,23.60
2011,08,03,13,11,23.60
2011,08,03,13,12,23.70
2011,08,03,13,13,23.70
2011,08,03,13,14,23.80
2011,08,03,13,15,23.90
2011,08,03,13,16,24.00
2011,08,03,13,17,24.10
2011,08,03,13,18,24.00
2011,08,03,13,19,23.80
2011,08,03,13,20,23.80
2011,08,03,13,21,23.80
2011,08,03,13,22,24.00
2011,08,03,13,23,24.10
2011,08,03,13,24,24.00
2011,08,03,13,25,23.90
2011,08,03,13,26,23.80
2011,08,03,13,27,23.70
2011,08,03,13,28,23.60
2011,08,03,13,29,23.40
2011,08,03,13,30,23.50
2011,08,03,13,31,23.50
2011,08,03,13,32,23.50
2011,08,03,13,33,23.50
2011,08,03,13,34,23.50
2011,08,03,13,35,23.60
2011,08,03,13,36,23.60
2011,08,03,13,37,23.50
2011,08,03,13,38,23.40
2011,08,03,13,39,23.40
2011,08,03,13,40,23.30
2011,08,03,13,41,23.30
2011,08,03,13,42,23.30
2011,08,03,13,43,23.20
2011,08,03,13,44,23.10
2011,08,03,13,45,23.10
2011,08,03,13,46,23.00
2011,08,03,13,47,23.00
2011,08,03,13,48,23.10
2011,08,03,13,49,23.10
2011,08,03,13,50,23.20
2011,08,03,13,51,23.30
2011,08,03,13,52,23.30
2011,08,03,13,53,23.30
2011,08,03,13,54,23.30
2011,08,03,13,55,23.40
2011,08,03,13,56,23.30
2011,08,03,13,57,23.10
2011,08,03,13,58,23.10
2011,08,03,13,59,23.20
2011,08,03,14,00,23.30
2011,08,03,14,01,23.20
2011,08,03,14,02,23.30
2011,08,03,14,03,23.20
2011,08,03,14,04,23.30
2011,08,03,14,05,23.30
2011,08,03,14,06,23.20
2011,08,03,14,07,23.10
2011,08,03,14,08,23.10
2011,08,03,14,09,23.10
2011,08,03,14,10,23.10
2011,08,03,14,11,23.20
2011,08,03,14,12,23.40
2011,08,03,14,13,23.40
2011,08,03,14,14,23.50
2011,08,03,14,15,23.50
2011,08,03,14,16,23.50
2011,08,03,14,17,23.50
2011,08,03,14,18,23.60
2011,08,03,14,19,23.50
2011,08,03,14,20,23.40
2011,08,03,14,21,23.30
2011,08,03,14,22,23.30
2011,08,03,14,23,23.20
2011,08,03,14,24,23.30
2011,08,03,14,25,23.20
2011,08,03,14,26,23.30
2011,08,03,14,27,23.40
2011,08,03,14,28,23.50
2011,08,03,14,29,23.70
2011,08,03,14,30,23.60
2011,08,03,14,31,23.40
2011,08,03,14,32,23.30
2011,08,03,14,33,23.30
2011,08,03,14,34,23.20
2011,08,03,14,35,23.30
2011,08,03,14,36,23.30
2011,08,03,14,37,23.40
2011,08,03,14,38,23.40
2011,08,03,14,39,23.40
2011,08,03,14,40,23.30
2011,08,03,14,41,23.40
2011,08,03,14,42,23.40
2011,08,03,14,43,23.40
2011,08,03,14,44,23.40
2011,08,03,14,45,23.40
2011,08,03,14,46,23.50
2011,08,03,14,47,23.50
2011,08,03,14,48,23.60
2011,08,03,14,49,23.60
2011,08,03,14,50,23.70
2011,08,03,14,51,23.80
2011,08,03,14,52,23.90
2011,08,03,14,53,23.90
2011,08,03,14,54,23.80
2011,08,03,14,55,23.70
2011,08,03,14,56,23.70
2011,08,03,14,57,23.70
2011,08,03,14,58,23.70
2011,08,03,14,59,23.50
2011,08,03,15,00,23.50
2011,08,03,15,01,23.60
2011,08,03,15,02,23.60
2011,08,03,15,03,23.60
2011,08,03,15,04,23.60
2011,08,03,15,05,23.70
2011,08,03,15,06,23.70
2011,08,03,15,07,23.70
2011,08,03,15,08,23.90
2011,08,03,15,09,24.00
2011,08,03,15,10,24.10
2011,08,03,15,11,24.10
2011,08,03,15,12,24.10
2011,08,03,15,13,24.20
2011,08,03,15,14,24.30
2011,08,03,15,15,24.20
2011,08,03,15,16,24.10
2011,08,03,15,17,24.10
2011,08,03,15,18,24.00
2011,08,03,15,19,23.80
2011,08,03,15,20,23.80
2011,08,03,15,21,23.80
2011,08,03,15,22,23.70
2011,08,03,15,23,23.70
2011,08,03,15,24,23.70
2011,08,03,15,25,23.70
2011,08,03,15,26,23.70
2011,08,03,15,27,23.70
2011,08,03,15,28,23.90
2011,08,03,15,29,24.00
2011,08,03,15,30,24.10
2011,08,03,15,31,24.10
2011,08,03,15,32,24.10
2011,08,03,15,33,24.10
2011,08,03,15,34,24.00
2011,08,03,15,35,24.00
2011,08,03,15,36,24.10
2011,08,03,15,37,24.10
2011,08,03,15,38,24.20
2011,08,03,15,39,24.30
2011,08,03,15,40,24.30
2011,08,03,15,41,24.30
2011,08,03,15,42,24.30
2011,08,03,15,43,24.20
2011,08,03,15,44,24.30
2011,08,03,15,45,24.30
2011,08,03,15,46,24.20
2011,08,03,15,47,24.20
2011,08,03,15,48,24.20
2011,08,03,15,49,24.10
2011,08,03,15,50,24.10
2011,08,03,15,51,24.10
2011,08,03,15,52,24.10
2011,08,03,15,53,24.10
2011,08,03,15,54,24.10
2011,08,03,15,55,24.10
2011,08,03,15,56,24.20
2011,08,03,15,57,24.20
2011,08,03,15,58,24.20
2011,08,03,15,59,24.30
2011,08,03,16,00,24.30
2011,08,03,16,01,24.20
2011,08,03,16,02,24.20
2011,08,03,16,03,24.20
2011,08,03,16,04,24.20
2011,08,03,16,05,24.10
2011,08,03,16,06,24.10
2011,08,03,16,07,24.10
2011,08,03,16,08,24.10
2011,08,03,16,09,24.10
2011,08,03,16,10,24.20
2011,08,03,16,11,24.10
2011,08,03,16,12,24.00
2011,08,03,16,13,24.00
2011,08,03,16,14,24.00
2011,08,03,16,15,24.10
2011,08,03,16,16,24.10
2011,08,03,16,17,24.10
2011,08,03,16,18,24.00
2011,08,03,16,19,23.80
2011,08,03,16,20,23.80
2011,08,03,16,21,23.90
2011,08,03,16,22,23.90
2011,08,03,16,23,24.00
2011,08,03,16,24,24.10
2011,08,03,16,25,24.20
2011,08,03,16,26,24.30
2011,08,03,16,27,24.10
2011,08,03,16,28,24.00
2011,08,03,16,29,24.00
2011,08,03,16,30,24.00
2011,08,03,16,31,24.10
2011,08,03,16,32,24.10
2011,08,03,16,33,24.20
2011,08,03,16,34,24.10
2011,08,03,16,35,24.00
2011,08,03,16,36,23.90
2011,08,03,16,37,23.90
2011,08,03,16,38,23.90
2011,08,03,16,39,23.90
2011,08,03,16,40,23.90
2011,08,03,16,41,23.90
2011,08,03,16,42,24.00
2011,08,03,16,43,24.10
2011,08,03,16,44,24.20
2011,08,03,16,45,24.20
2011,08,03,16,46,24.20
2011,08,03,16,47,24.20
2011,08,03,16,48,24.20
2011,08,03,16,49,24.20
2011,08,03,16,50,24.10
2011,08,03,16,51,24.20
2011,08,03,16,52,24.20
2011,08,03,16,53,24.20
2011,08,03,16,54,24.10
2011,08,03,16,55,24.00
2011,08,03,16,56,24.00
2011,08,03,16,57,23.90
2011,08,03,16,58,23.90
2011,08,03,16,59,23.90
2011,08,03,17,00,24.00
2011,08,03,17,01,24.00
2011,08,03,17,02,24.00
2011,08,03,17,03,24.10
2011,08,03,17,04,24.20
2011,08,03,17,05,24.20
2011,08,03,17,06,24.20
2011,08,03,17,07,24.20
2011,08,03,17,08,24.10
2011,08,03,17,09,24.10
2011,08,03,17,10,24.20
2011,08,03,17,11,24.10
2011,08,03,17,12,24.10
2011,08,03,17,13,24.10
2011,08,03,17,14,24.10
2011,08,03,17,15,24.20
2011,08,03,17,16,24.20
2011,08,03,17,17,24.20
2011,08,03,17,18,24.10
2011,08,03,17,19,24.10